Regional Weather Roundup
Issued by NWS Wakefield, VA

Home | Current Version | Previous Version | Graphics & Text | Print | Product List | Glossary On
Versions: 1 2 3 4 5 6 7 8 9 10 11 12 13 14 15 16 17 18 19 20 21 22 23 24 25 26 27 28 29 30 31 32 33 34 35 36 37 38 39 40 41 42 43 44 45 46 47 48 49 50
734
ASUS41 KAKQ 210015
RWRAKQ

REGIONAL WEATHER ROUNDUP
NATIONAL WEATHER SERVICE WAKEFIELD VA
800 PM EDT FRI APR 20 2018

Note: "fair" indicates few or no clouds below 12,000 feet with no
significant weather and/or obstructions to visibility. * = Denotes
station may not report precipitation (e.g., rain,snow,etc.),
thunder or fog.

VAZ042-051-052>054-056-210100-
NORTHERN VIRGINIA

CITY           SKY/WX    TMP DP  RH WIND       PRES   REMARKS
WASH NATIONAL  FAIR      57  24  28 NW13      30.31R
DULLES         FAIR      55  24  30 N15       30.31R
FORT BELVOIR   FAIR      57  24  28 N5        30.31R
QUANTICO       FAIR      58  25  28 N7        30.32R
FREDERICKSBRG* FAIR      58  28  31 N9G17     30.30R
STAFFORD*      FAIR      56  24  30 N7        30.34R
WARRENTON      FAIR      56  19  24 N12       30.31R
CULPEPER*      FAIR      55  23  28 N7        30.32R
MANASSAS*      FAIR      55  26  32 N10       30.32R
LEESBURG*      FAIR      55  30  38 N9        30.33R
WINCHESTER     FAIR      52  23  32 NW13      30.34R
FRONT ROYAL*   FAIR      54  25  32 NW6       30.31R
LURAY*         FAIR      54  23  30 NW3       30.31R
$$

VAZ048-049-060>072-079>083-210100-
CENTRAL AND SOUTH CENTRAL VIRGINIA

CITY           SKY/WX    TMP DP  RH WIND       PRES   REMARKS
RICHMOND       FAIR      56  25  30 N7        30.29R
CHESTERFIELD*  FAIR      58  24  27 CALM      30.29R
PETERSBURG*    FAIR      50  29  45 CALM      30.29R
HANOVER        FAIR      56  26  31 CALM      30.30R
TAPPAHANNOCK*  FAIR      56  27  32 NW3       30.31R
QUINTON*       FAIR      58  25  28 N6        30.29R
CHARLOTTSVILLE FAIR      58  20  22 N6        30.30R
GORDONSVILLE*  FAIR      58  22  25 N3        30.30R
ORANGE*        FAIR      55  25  30 CALM      30.30R
LOUISA*        FAIR      56  21  25 NW6       30.34R
BUMPASS*       FAIR      55  23  29 CALM      30.30R
FARMVILLE*     FAIR      57  19  22 CALM      30.28R
CREWE*         FAIR      54  32  43 CALM      30.29R
FORT PICKETT*  FAIR      56  24  28 CALM      30.29R
CHASE CITY*    FAIR      54  31  41 CALM      30.29R
CLARKSVILLE*   FAIR      57  27  30 CALM      30.29R
SOUTH HILL*    FAIR      53  32  43 CALM      30.34S
LAWRENCEVILLE* FAIR      55  23  28 CALM      30.29R
EMPORIA*       FAIR      52  32  46 CALM      30.31R
$$

VAZ088>098-210100-
SOUTHEAST VIRGINIA

CITY           SKY/WX    TMP DP  RH WIND       PRES   REMARKS
NORFOLK        FAIR      51  33  50 NE6       30.30R
VIRGINIA BEACH FAIR      48  37  65 E5        30.30R
NORFOLK NAVAL  FAIR      52  32  46 E5        30.32R
WEST POINT*    FAIR      56  24  29 CALM      30.32R
SALUDA*        FAIR      50  38  64 SE3       30.30R
NEWPORT NEWS   FAIR      49  36  61 E6        30.31R
LANGLEY AFB    FAIR      48  35  62 E5        30.31R
FORT EUSTIS    FAIR      54  35  48 E6        30.28R
WILLIAMSBURG*  FAIR      55  23  28 CALM      30.30R
HR EXEC AP*    FAIR      47  36  65 NE5       30.31R
FRANKLIN*      FAIR      50  33  50 CALM      30.30R
US460-WAKEFLD  FAIR      52  31  44 CALM      30.29R
$$

VAZ020-022-025-037-045-210100-
WEST CENTRAL AND SOUTHWEST VIRGINIA

CITY           SKY/WX    TMP DP  RH WIND       PRES   REMARKS
STAUNTON*      FAIR      53  22  30 N7        30.33R
WAYNESBORO*    FAIR      54  21  28 N6        30.31R
HOT SPRINGS VA FAIR      46   7  20 NW10G16   30.32R
LYNCHBURG      FAIR      55  18  23 CALM      30.28R
DANVILLE       FAIR      53  32  44 CALM      30.29R
SOUTH BOSTON*  FAIR      57  19  23 CALM      30.29R
MARTINSVILLE   FAIR      54  22  28 NW6       30.32R
ROANOKE        FAIR      55  23  28 NW7       30.32R
BLACKSBURG     FAIR      52  21  30 W7        30.36R
DUBLIN*        FAIR      54  17  23 N6        30.34R
MARION*        FAIR      55  14  19 NW7       30.35S
HILLSVILLE*    FAIR      53  12  20 N7        30.31R
RICHLANDS*     FAIR     N/A N/A N/A N8        30.35S
WISE*          FAIR      52  21  30 N7        30.37R
ABINGDON*      FAIR      59  16  18 N5        30.33R
$$

MDZ021>025-VAZ099-100-210100-
SOUTHERN MARYLAND AND THE DELMARVA PENINSULA

CITY           SKY/WX    TMP DP  RH WIND       PRES   REMARKS
PATUXENT RIVER FAIR      51  33  50 CALM      30.29R
BAY BRIDGE APT FAIR      52  37  58 N8        30.30R
LEONARDTOWN    FAIR      54  28  37 NW5       30.31R
DOVER          FAIR      46  30  53 N8        30.28R
GEORGETOWN     FAIR      53  28  38 VRB3      30.29R
EASTON         CLEAR     54  28  37 N3        30.32R
CAMBRIDGE      CLEAR     52  32  46 CALM      30.30R
SALISBURY      FAIR      52  28  39 N5        30.29R
TANGIER        FAIR      54  34  47 N3        30.30R
OCEAN CITY     FAIR      47  37  68 S9        30.30R
WALLOPS ISLAND FAIR      53  30  41 N3        30.30R
ACCOMACK*      FAIR      50  31  48 N3        30.30R
$$

NCZ012>017-030>032-210100-
NORTH CENTRAL AND EASTERN NORTH CAROLINA

CITY           SKY/WX    TMP DP  RH WIND       PRES   REMARKS
ROANOKE RAPIDS FAIR      52  32  46 CALM      30.29S
RALEIGH        FAIR      58  27  30 NE3       30.30R
ELIZABETH CITY FAIR      50  37  61 E7        30.32R
AHOSKIE*       FAIR      52  33  48 CALM      30.30R
EDENTON*       FAIR      54  42  63 E9        30.31R
CURRITUCK*     NOT AVBL
KILL DEVIL HLS FAIR      46  34  63 E5        30.31R
MANTEO         FAIR      46  34  62 E7        30.33R
CAPE HATTERAS  FAIR      47  36  65 E5        30.32R
TARBORO*       NOT AVBL
GOLDSBORO      FAIR      59  28  31 E5        30.27S
WASHINGTON     FAIR      56  30  37 CALM      30.30R
GREENVILLE     FAIR      55  30  38 CALM      30.31R
NEW BERN       FAIR      54  32  43 N6        30.31R
WILMINGTON     FAIR      55  38  52 S3        30.29R
$$

VAZ048-210100-
ELSEWHERE

CITY           SKY/WX    TMP DP  RH WIND       PRES   REMARKS
HARRISBURG PA  FAIR      51  25  36 NE10      30.31R
BALTIMORE      FAIR      54  25  32 NW6       30.29R
ANNAPOLIS      FAIR      58  30  34 NW8       30.29R
ANDREWS AFB    FAIR      55  25  31 NW10      30.29R
PHILADELPHIA   FAIR      49  23  36 N13       30.31R
HENDERSON NC   FAIR      53  24  31 CALM      30.29R
GREENSBORO     FAIR      61  23  23 E5        30.27R
ROCKY MOUNT    FAIR      54  30  40 CALM      30.30R
$$

VAZ100-210100-
MARINE

STATION/POSITION TIME  TEMP    WIND        PRES    WAVE   SWELL
                       AIR SEA DIR/SP/G            HT/PER HT/PER
                 (UTC) (F)     (DEG/KT/KT) (MB)    (FT/S) (FT/S)
BRANDYWINE LGT   2348          360/ 14/ 16   N/A
CAPE MAY NJ      2348   51 50  330/  1/  4 1024.9R
LEWES DE         2348   52 51  350/  9/ 10 1025.5R
15NM E FENWICK I 2350   47 46  350/  6/  8 1026.1R   2/ 4   2/ 5
OCEAN-CITY-INLET 2348   53 52  350/  5/  7 1026.3R
WACHAPREAGUE VA  2348   51 57  340/  3/  5 1026.0R
THOMAS POINT MD  0000   56 50  330/ 12/ 15 1027.0R
GOOSES REEF MD   0000   54      20/ 10/ 12 1026.1
COVE POINT MD    2348   53     290/  2/  2 1026.5R
SOLOMONS ISLAND  2348   53 52   30/  5/  5 1025.6R
BISHOPS HEAD MD  2348   53 55  340/  3/  6 1026.2R
PINEY POINT MD   2348           40/  4/  5   N/A
POTOMAC MD       0000   52 53   40/  2/  2 1027.2    1
CAMBRIDGE MD     2348   54 54              1026.7R
LEWISETTA VA     2348   52 53  120/  6/  8 1025.9R
RAPPAHANNOCK LGT 2348           30/  5/  6 1026.8R
YORK RVR RNG VA  2348   51     110/  7/  9 1026.7R
YORKTOWN VA      2348   51 56  120/  6/  7 1025.9R
DOMINION TERM VA 2348   54      70/  2/  4 1026.3R
KIPTOPEKE VA     2348      54  140/  7/  9   N/A
CAPE HENRY VA    2348   51      80/  5/  6   N/A
WILLOUBY STN VA  2348   53      50/  9/  9 1026.1R
S CRANEY ISL VA  2348   54      80/  7/  9 1025.7R
CAPE HENRY BUOY  0000      50                N/A     2/ 6
64NM E OF VA BCH 2350   47 49  360/  4/  6 1027.0R   4/ 7   3/ 7
DUCK PIER NC     2348   48 53  110/  8/  9 1026.1R
44100 DUCK FRF   2345      50                N/A     3/ 6
44056 DUCK FRF   0000      51                N/A     3/ 6   2/14
OREGON INLET NC  2348           50/  9/ 13   N/A
HATTERAS NC      2348   49 61   70/  6/  8 1026.6R
DIAMOND SHLS NC  0000   52 71   40/ 10/ 14 1026.9
CAPE LOOKOUT NC  0000           70/  9/ 11 1026.3R
$$




USA.gov is the U.S. government's official web portal to all federal, state and local government web resources and services.